Beaver Bay, MN

5:41 PM CDT on August 31, 2016 (GMT -0500)
Silver Bay Municipal

Weather History for KBFW - January, 2014

Change the Weather History Date:

Sunday, January 19, 2014

  Actual Average Record
Temperature  
Mean Temperature 16 °F -  
Max Temperature 26 °F 17 °F 32 °F (1997)
Min Temperature 6 °F 0 °F -27 °F (2004)
Degree Days  
Heating Degree Days 49    
Moisture  
Dew Point 15 °F    
Average Humidity 83    
Maximum Humidity 93    
Minimum Humidity 68    
Precipitation  
Precipitation 0.00 in - - ()
Sea Level Pressure  
Sea Level Pressure 29.46 in    
Wind  
Wind Speed 4 mph (WNW)    
Max Wind Speed 10 mph    
Max Gust Speed 16 mph    
Visibility 10 miles    
Events Snow    
Averages and records for this station are not official NWS values.
T = Trace of Precipitation, MM = Missing Value Source: NWS Daily Summary

Daily Weather History Graph

Daily Weather History Graph

Search for Another Location

Airport or City:

Trip Planner

Search our weather history database for the weather conditions in past years. The results will help you decide how hot, cold, wet, or windy it might be!

Date:

Astronomy

Jan. 19, 2014 Rise Set
Actual Time 7:44 AM CST 4:48 PM CST
Civil Twilight 7:10 AM CST 5:22 PM CST
Nautical Twilight 6:33 AM CST 6:00 PM CST
Astronomical Twilight 5:56 AM CST 6:36 PM CST
Moon 8:44 PM CST (1/19) 8:59 AM CST (1/19)
Length of Visible Light 10h 11m
Length of Day
9h 03m
Waning Gibbous, 89% of the Moon is Illuminated
Jan 19
Waning Gibbous
Jan 23
Last Quarter
Jan 30
New
Feb 6
First Quarter
Feb 14
Full

Hourly Weather History & Observations

Time (CST) Temp. Windchill Dew Point Humidity Pressure Visibility Wind Dir Wind Speed Gust Speed Precip Events Conditions
12:13 AM 21.2 °F 14.9 °F 17.6 °F 86% 29.40 in 10.0 mi WSW 4.6 mph - N/A   Scattered Clouds
12:33 AM 21.2 °F 11.7 °F 17.6 °F 86% 29.40 in 10.0 mi SW 8.1 mph - N/A   Clear
12:53 AM 21.2 °F 16.4 °F 19.4 °F 93% 29.39 in 10.0 mi SW 3.5 mph - N/A   Scattered Clouds
1:13 AM 21.2 °F 10.1 °F 19.4 °F 93% 29.38 in 10.0 mi SW 10.4 mph 16.1 mph N/A   Scattered Clouds
1:33 AM 21.2 °F 12.6 °F 19.4 °F 93% 29.36 in 10.0 mi SW 6.9 mph - N/A   Clear
1:53 AM 21.2 °F 13.6 °F 19.4 °F 93% 29.37 in 10.0 mi SW 5.8 mph - N/A   Clear
2:13 AM 21.2 °F 12.6 °F 19.4 °F 93% 29.37 in 10.0 mi SW 6.9 mph - N/A   Scattered Clouds
2:33 AM 21.2 °F 13.6 °F 19.4 °F 93% 29.36 in 10.0 mi SW 5.8 mph - N/A   Scattered Clouds
2:53 AM 21.2 °F 12.6 °F 19.4 °F 93% 29.36 in 10.0 mi SW 6.9 mph - N/A   Scattered Clouds
3:13 AM 21.2 °F 13.6 °F 19.4 °F 93% 29.35 in 10.0 mi SW 5.8 mph - N/A   Scattered Clouds
3:33 AM 21.2 °F 12.6 °F 19.4 °F 93% 29.35 in 10.0 mi WSW 6.9 mph - N/A   Scattered Clouds
3:53 AM 21.2 °F 13.6 °F 19.4 °F 93% 29.35 in 10.0 mi SW 5.8 mph 16.1 mph N/A   Scattered Clouds
4:13 AM 21.2 °F 14.9 °F 19.4 °F 93% 29.35 in 10.0 mi SW 4.6 mph - N/A   Scattered Clouds
4:33 AM 23.0 °F - 19.4 °F 86% 29.35 in 10.0 mi Calm Calm - N/A   Scattered Clouds
4:53 AM 23.0 °F 17.0 °F 21.2 °F 93% 29.34 in 10.0 mi SW 4.6 mph - N/A   Scattered Clouds
5:13 AM 23.0 °F 17.0 °F 21.2 °F 93% 29.34 in 10.0 mi SW 4.6 mph - N/A   Scattered Clouds
5:33 AM 24.8 °F 19.1 °F 21.2 °F 86% 29.34 in 10.0 mi WSW 4.6 mph - N/A   Scattered Clouds
5:53 AM 24.8 °F - 21.2 °F 86% 29.35 in 10.0 mi Calm Calm - N/A   Scattered Clouds
6:13 AM 24.8 °F 19.1 °F 21.2 °F 86% 29.36 in 10.0 mi SW 4.6 mph - N/A   Scattered Clouds
6:33 AM 24.8 °F - 21.2 °F 86% 29.35 in 10.0 mi Calm Calm - N/A   Scattered Clouds
6:53 AM 24.8 °F 20.5 °F 21.2 °F 86% 29.35 in 10.0 mi WSW 3.5 mph - N/A   Scattered Clouds
7:13 AM 24.8 °F - 21.2 °F 86% 29.35 in 10.0 mi Calm Calm - N/A   Scattered Clouds
7:33 AM 24.8 °F - 21.2 °F 86% 29.36 in 10.0 mi Calm Calm - N/A   Scattered Clouds
7:53 AM 24.8 °F - 23.0 °F 93% 29.37 in 10.0 mi Calm Calm - N/A   Scattered Clouds
8:13 AM 24.8 °F 20.5 °F 21.2 °F 86% 29.37 in 10.0 mi WNW 3.5 mph - N/A   Scattered Clouds
8:33 AM 26.6 °F 20.0 °F 23.0 °F 86% 29.38 in 10.0 mi NW 5.8 mph - N/A   Mostly Cloudy
8:53 AM 24.8 °F 16.1 °F 21.2 °F 86% 29.40 in 10.0 mi NNW 8.1 mph - N/A   Scattered Clouds
9:13 AM 24.8 °F 19.1 °F 21.2 °F 86% 29.40 in 10.0 mi NW 4.6 mph - N/A   Scattered Clouds
9:33 AM 24.8 °F 17.9 °F 21.2 °F 86% 29.41 in 10.0 mi NNW 5.8 mph - N/A   Mostly Cloudy
9:53 AM 24.8 °F 19.1 °F 21.2 °F 86% 29.42 in 10.0 mi WNW 4.6 mph - N/A   Scattered Clouds
10:13 AM 24.8 °F - 19.4 °F 80% 29.41 in 10.0 mi Calm Calm - N/A   Scattered Clouds
10:33 AM 24.8 °F - 19.4 °F 80% 29.41 in 10.0 mi Calm Calm - N/A   Scattered Clouds
10:53 AM 24.8 °F 19.1 °F 19.4 °F 80% 29.42 in 10.0 mi NW 4.6 mph - N/A   Scattered Clouds
11:13 AM 24.8 °F - 19.4 °F 80% 29.41 in 10.0 mi Calm Calm - N/A   Scattered Clouds
11:33 AM 24.8 °F 20.5 °F 19.4 °F 80% 29.41 in 10.0 mi NNW 3.5 mph - N/A   Scattered Clouds
11:53 AM 24.8 °F 20.5 °F 19.4 °F 80% 29.42 in 10.0 mi WNW 3.5 mph - N/A   Scattered Clouds
12:13 PM 24.8 °F 20.5 °F 17.6 °F 74% 29.41 in 10.0 mi WNW 3.5 mph - N/A   Scattered Clouds
12:33 PM 24.8 °F 17.9 °F 19.4 °F 80% 29.42 in 10.0 mi WNW 5.8 mph - N/A   Scattered Clouds
12:53 PM 24.8 °F 20.5 °F 17.6 °F 74% 29.40 in 10.0 mi WNW 3.5 mph - N/A   Scattered Clouds
1:13 PM 24.8 °F 19.1 °F 17.6 °F 74% 29.41 in 10.0 mi West 4.6 mph - N/A   Scattered Clouds
1:33 PM 24.8 °F 20.5 °F 17.6 °F 74% 29.41 in 10.0 mi NW 3.5 mph - N/A   Clear
1:53 PM 24.8 °F 19.1 °F 17.6 °F 74% 29.42 in 10.0 mi NW 4.6 mph - N/A   Clear
2:13 PM 24.8 °F 19.1 °F 17.6 °F 74% 29.42 in 10.0 mi NW 4.6 mph - N/A   Clear
2:33 PM 23.0 °F 15.8 °F 15.8 °F 74% 29.43 in 10.0 mi NNW 5.8 mph - N/A   Clear
2:53 PM 23.0 °F - 15.8 °F 74% 29.43 in 10.0 mi Calm Calm - N/A   Clear
3:13 PM 23.0 °F - 14.0 °F 68% 29.44 in 10.0 mi Calm Calm - N/A   Clear
3:33 PM 21.2 °F 14.9 °F 15.8 °F 80% 29.46 in 10.0 mi NNW 4.6 mph - N/A   Clear
3:53 PM 21.2 °F 13.6 °F 15.8 °F 80% 29.49 in 10.0 mi NNW 5.8 mph - N/A   Clear
4:13 PM 19.4 °F 11.5 °F 14.0 °F 80% 29.50 in 10.0 mi NW 5.8 mph - N/A   Clear
4:34 PM 19.4 °F 12.8 °F 12.2 °F 74% 29.52 in 10.0 mi NNW 4.6 mph - N/A   Clear
4:53 PM 19.4 °F - 12.2 °F 74% 29.52 in 10.0 mi Calm Calm - N/A   Clear
5:13 PM 17.6 °F 12.3 °F 12.2 °F 79% 29.54 in 10.0 mi NW 3.5 mph - N/A Snow Light Snow
5:33 PM 17.6 °F - 12.2 °F 79% 29.55 in 10.0 mi Calm Calm - N/A   Clear
5:53 PM 17.6 °F - 12.2 °F 79% 29.55 in 10.0 mi Calm Calm - N/A   Clear
6:13 PM 15.8 °F 10.2 °F 10.4 °F 79% 29.57 in 7.0 mi NW 3.5 mph - N/A Snow Light Snow
6:33 PM 14.0 °F 8.2 °F 8.6 °F 79% 29.58 in 10.0 mi NW 3.5 mph - N/A Snow Light Snow
6:53 PM 14.0 °F - 8.6 °F 79% 29.58 in 10.0 mi Calm Calm - N/A   Clear
7:13 PM 12.2 °F 6.1 °F 8.6 °F 85% 29.58 in 10.0 mi NNW 3.5 mph - N/A   Clear
7:33 PM 12.2 °F 6.1 °F 8.6 °F 85% 29.60 in 10.0 mi North 3.5 mph - N/A   Clear
7:53 PM 12.2 °F - 6.8 °F 79% 29.60 in 10.0 mi Calm Calm - N/A   Clear
8:13 PM 12.2 °F - 6.8 °F 79% 29.60 in 10.0 mi Calm Calm - N/A   Clear
8:33 PM 12.2 °F - 6.8 °F 79% 29.60 in 10.0 mi Calm Calm - N/A   Clear
8:53 PM 12.2 °F 6.1 °F 6.8 °F 79% 29.62 in 10.0 mi NNW 3.5 mph - N/A   Clear
9:13 PM 10.4 °F - 6.8 °F 85% 29.63 in 10.0 mi Calm Calm - N/A   Clear
9:33 PM 10.4 °F - 5.0 °F 79% 29.63 in 10.0 mi Calm Calm - N/A   Clear
9:53 PM 8.6 °F - 5.0 °F 85% 29.63 in 10.0 mi Calm Calm - N/A   Clear
10:13 PM 8.6 °F 0.1 °F 3.2 °F 79% 29.63 in 10.0 mi NW 4.6 mph - N/A   Clear
10:33 PM 8.6 °F - 3.2 °F 79% 29.64 in 10.0 mi Calm Calm - N/A   Clear
10:53 PM 8.6 °F 2.0 °F 1.4 °F 73% 29.66 in 10.0 mi NW 3.5 mph - N/A   Clear
11:13 PM 8.6 °F 2.0 °F 1.4 °F 73% 29.67 in 10.0 mi NW 3.5 mph - N/A   Clear
11:33 PM 6.8 °F -2.0 °F 1.4 °F 79% 29.67 in 10.0 mi NNW 4.6 mph - N/A   Clear
11:53 PM 6.8 °F - 1.4 °F 79% 29.69 in 10.0 mi Calm Calm - N/A   Clear